Terminal Aerodrome Forecast
Issued by NWS Green Bay, WI

Home | Current Version | Previous Version | Text Only | Print | Product List | Glossary Off
Versions: 1 2 3 4 5 6 7 8 9 10 11 12 13 14 15 16 17 18 19 20 21 22 23 24 25 26 27 28 29 30 31 32 33 34

000
FTUS43 KGRB 182300
TAFGRB
TAF
KGRB 182337Z 1900/1924 36004KT P6SM FEW025
     FM190200 34004KT P6SM SCT250
     FM191500 31003KT P6SM SKC
     FM192200 24002KT P6SM SCT100=

USA.gov is the U.S. government's official web portal to all federal, state and local government web resources and services.